Location: Maccacari
(45.1333°N, 11.1333°E)
Time: 14:44:30
(UTC+00:00)

SR - Pass Details

Date: 18 June 2021
Orbit: 577 x 878 km, 66.7° (Epoch: 24 July)

Event Time Altitude Azimuth Distance (km) Brightness Sun altitude
Rises 01:57:06 0° 318° (NW) 3,275 ? -12.3°
Reaches altitude 10° 01:59:54 10° 307° (NW) 2,289 ? -12.0°
Maximum altitude 02:04:13 27° 251° (WSW) 1,358 ? -11.6°
Enters shadow 02:07:28 14° 200° (SSW) 1,875 ? -11.2°
